timestamp,surface_pressure_avg,surface_temp_avg,battery_voltage,lat,long
2023-08-21 00:09:01+00:00,280.818,18.2,12.25,47.84626,-54.09684
2023-08-21 00:19:00+00:00,282.4114,18.22,12.25,47.84626,-54.09684
2023-08-21 00:29:00+00:00,285.5381,18.22,12.25,47.84626,-54.09684
2023-08-21 00:39:00+00:00,297.2214,18.22,12.25,47.84626,-54.09684
2023-08-21 00:49:00+00:00,307.1564,18.23,12.25,47.84626,-54.09684
2023-08-21 00:59:00+00:00,306.5947,18.22,12.25,47.84626,-54.09684
2023-08-21 01:09:00+00:00,309.8063,18.22,12.25,47.84626,-54.09684
2023-08-21 01:19:00+00:00,320.6479,18.22,12.25,47.84626,-54.09684
2023-08-21 01:29:00+00:00,326.3463,18.21,12.25,47.84626,-54.09684
2023-08-21 01:39:00+00:00,323.08799999999997,18.2,12.25,47.84626,-54.09684
2023-08-21 01:49:00+00:00,327.243,18.17,12.25,47.84626,-54.09684
2023-08-21 01:59:00+00:00,335.2913,18.19,12.25,47.84626,-54.09684
2023-08-21 02:09:00+00:00,334.4097,18.2,12.25,47.84626,-54.09684
2023-08-21 02:19:00+00:00,329.8130000000001,18.19,12.25,47.84626,-54.09684
2023-08-21 02:29:00+00:00,332.8547,18.2,12.25,47.84626,-54.09684
2023-08-21 02:39:00+00:00,333.9797,18.2,12.25,47.84626,-54.09684
2023-08-21 02:49:00+00:00,329.208,18.2,12.25,47.84626,-54.09684
2023-08-21 02:59:00+00:00,330.3896,18.2,12.25,47.84626,-54.09684
2023-08-21 03:09:00+00:00,333.3196,18.2,12.25,47.84626,-54.09684
2023-08-21 03:19:00+00:00,329.2113,18.2,12.25,47.84626,-54.09684
2023-08-21 03:29:00+00:00,322.3114,18.2,12.25,47.84626,-54.09684
2023-08-21 03:39:00+00:00,322.8914,18.19,12.25,47.84626,-54.09684
2023-08-21 03:49:00+00:00,320.3947,18.19,12.25,47.84626,-54.09684
2023-08-21 03:59:00+00:00,315.4963,18.19,12.25,47.84626,-54.09684
2023-08-21 04:09:00+00:00,311.0247,18.2,12.25,47.84626,-54.09684
2023-08-21 04:19:00+00:00,311.9863,18.2,12.25,47.84626,-54.09684
2023-08-21 04:29:00+00:00,307.2247,18.2,12.25,47.84626,-54.09684
2023-08-21 04:39:00+00:00,300.5647,18.2,12.25,47.84626,-54.09684
2023-08-21 04:49:00+00:00,296.8663,18.19,12.25,47.84626,-54.09684
2023-08-21 04:59:00+00:00,292.9114,18.19,12.25,47.84626,-54.09684
2023-08-21 05:09:00+00:00,283.918,18.18,12.25,47.84626,-54.09684
2023-08-21 05:19:00+00:00,274.7214,18.1,12.25,47.84626,-54.09684
2023-08-21 05:29:00+00:00,268.6131,18.1,12.25,47.84626,-54.09684
2023-08-21 05:39:00+00:00,262.9531,18.1,12.25,47.84626,-54.09684
2023-08-21 05:49:00+00:00,254.9898,18.1,12.25,47.84626,-54.09684
2023-08-21 05:59:00+00:00,243.1931,18.1,12.25,47.84626,-54.09684
2023-08-21 06:09:00+00:00,236.0014,18.1,12.25,47.84626,-54.09684
2023-08-21 06:19:00+00:00,231.5298,18.1,12.25,47.84626,-54.09684
2023-08-21 06:29:00+00:00,222.8747,18.1,12.25,47.84626,-54.09684
2023-08-21 06:39:00+00:00,211.6798,18.1,12.25,47.84626,-54.09684
2023-08-21 06:49:00+00:00,206.6548,18.1,12.25,47.84626,-54.09684
2023-08-21 06:59:00+00:00,203.4865,18.1,12.25,47.84626,-54.09684
2023-08-21 07:09:00+00:00,197.6082,18.1,12.25,47.84626,-54.09684
2023-08-21 07:19:00+00:00,192.0048,18.1,12.17,47.84626,-54.09684
2023-08-21 07:29:00+00:00,188.5264,18.1,12.17,47.84626,-54.09684
2023-08-21 07:39:00+00:00,181.6681,18.1,12.17,47.84626,-54.09684
2023-08-21 07:49:00+00:00,175.7115,18.1,12.17,47.84626,-54.09684
2023-08-21 07:59:00+00:00,176.6481,18.12,12.17,47.84626,-54.09684
2023-08-21 08:09:00+00:00,175.6531,18.14,12.17,47.84626,-54.09684
2023-08-21 08:19:00+00:00,173.1431,18.17,12.17,47.84626,-54.09684
2023-08-21 08:29:00+00:00,175.3448,18.2,12.17,47.84626,-54.09684
2023-08-21 08:39:00+00:00,181.1298,18.23,12.17,47.84626,-54.09684
2023-08-21 08:49:00+00:00,182.8465,18.26,12.17,47.84626,-54.09684
2023-08-21 08:59:00+00:00,184.0948,18.29,12.17,47.84626,-54.09684
2023-08-21 09:09:00+00:00,192.6064,18.3,12.17,47.84626,-54.09684
2023-08-21 09:19:00+00:00,199.4781,18.3,12.17,47.84626,-54.09684
2023-08-21 09:29:00+00:00,200.4547,18.3,12.17,47.84626,-54.09684
2023-08-21 09:39:00+00:00,205.2564,18.3,12.17,47.84626,-54.09684
2023-08-21 09:49:00+00:00,214.2314,18.3,12.17,47.84626,-54.09684
2023-08-21 09:59:00+00:00,218.2998,18.3,12.17,47.84626,-54.09684
2023-08-21 10:09:00+00:00,222.4881,18.3,12.17,47.84626,-54.09684
2023-08-21 10:19:00+00:00,230.4781,18.3,12.25,47.84626,-54.09684
2023-08-21 10:29:00+00:00,237.1198,18.3,12.25,47.84626,-54.09684
2023-08-21 10:39:00+00:00,241.3231,18.3,12.25,47.84626,-54.09684
2023-08-21 10:49:00+00:00,246.1014,18.3,12.25,47.84626,-54.09684
2023-08-21 10:59:00+00:00,249.7164,18.3,12.25,47.84626,-54.09684
2023-08-21 11:09:00+00:00,254.2064,18.3,12.25,47.84626,-54.09684
2023-08-21 11:19:00+00:00,257.6614,18.3,12.25,47.84626,-54.09684
2023-08-21 11:29:00+00:00,260.8664,18.29,12.25,47.84626,-54.09684
2023-08-21 11:39:00+00:00,264.6314,18.29,12.25,47.84626,-54.09684
2023-08-21 11:49:00+00:00,269.5647,18.27,12.25,47.84626,-54.09684
2023-08-21 11:59:00+00:00,273.6581,18.25,12.25,47.84626,-54.09684
2023-08-21 12:09:00+00:00,279.168,18.2,12.25,47.84626,-54.09684
2023-08-21 12:19:00+00:00,285.9864,18.2,12.41,47.84626,-54.09684
2023-08-21 12:29:00+00:00,292.673,18.2,12.41,47.84626,-54.09684
2023-08-21 12:39:00+00:00,300.9813,18.2,12.41,47.84626,-54.09684
2023-08-21 12:49:00+00:00,310.3614,18.2,12.41,47.84626,-54.09684
2023-08-21 12:59:00+00:00,317.378,18.2,12.41,47.84626,-54.09684
2023-08-21 13:09:00+00:00,321.1564,18.2,12.41,47.84626,-54.09684
2023-08-21 13:19:00+00:00,324.6563,18.23,12.33,47.84626,-54.09684
2023-08-21 13:29:00+00:00,329.1213,18.26,12.33,47.84626,-54.09684
2023-08-21 13:39:00+00:00,333.4279,18.28,12.33,47.84626,-54.09684
2023-08-21 13:49:00+00:00,332.4980000000001,18.27,12.33,47.84626,-54.09684
2023-08-21 13:59:00+00:00,330.8096,18.27,12.33,47.84626,-54.09684
2023-08-21 14:09:00+00:00,334.7847,18.28,12.33,47.84626,-54.09684
2023-08-21 14:19:00+00:00,336.4496,18.28,12.25,47.84626,-54.09684
2023-08-21 14:29:00+00:00,335.033,18.29,12.25,47.84626,-54.09684
2023-08-21 14:39:00+00:00,336.833,18.29,12.25,47.84626,-54.09684
2023-08-21 14:49:00+00:00,341.778,18.29,12.25,47.84626,-54.09684
2023-08-21 14:59:00+00:00,338.908,18.3,12.25,47.84626,-54.09684
2023-08-21 15:09:00+00:00,332.543,18.3,12.25,47.84626,-54.09684
2023-08-21 15:19:00+00:00,334.5579,18.3,12.41,47.84626,-54.09684
2023-08-21 15:29:00+00:00,334.9012,18.3,12.41,47.84626,-54.09684
2023-08-21 15:39:00+00:00,327.6663,18.3,12.41,47.84626,-54.09684
2023-08-21 15:49:00+00:00,321.2397,18.3,12.41,47.84626,-54.09684
2023-08-21 15:59:00+00:00,322.6246,18.29,12.41,47.84626,-54.09684
2023-08-21 16:09:00+00:00,323.3563,18.3,12.41,47.84626,-54.09684
2023-08-21 16:19:00+00:00,316.2946,18.29,12.33,47.84626,-54.09684
2023-08-21 16:29:00+00:00,313.718,18.29,12.33,47.84626,-54.09684
2023-08-21 16:39:00+00:00,313.6346,18.29,12.33,47.84626,-54.09684
2023-08-21 16:49:00+00:00,311.2647,18.29,12.33,47.84626,-54.09684
2023-08-21 16:59:00+00:00,303.0647,18.29,12.33,47.84626,-54.09684
2023-08-21 17:09:00+00:00,297.728,18.29,12.33,47.84626,-54.09684
2023-08-21 17:19:00+00:00,294.14799999999997,18.29,12.33,47.84626,-54.09684
2023-08-21 17:29:00+00:00,293.098,18.28,12.33,47.84626,-54.09684
2023-08-21 17:39:00+00:00,290.598,18.27,12.33,47.84626,-54.09684
2023-08-21 17:49:00+00:00,285.9897,18.29,12.33,47.84626,-54.09684
2023-08-21 17:59:00+00:00,275.4948,18.29,12.33,47.84626,-54.09684
2023-08-21 18:09:00+00:00,267.563,18.29,12.33,47.84626,-54.09684
2023-08-21 18:19:00+00:00,259.6048,18.29,12.25,47.84626,-54.09684
2023-08-21 18:29:00+00:00,251.4598,18.28,12.25,47.84626,-54.09684
2023-08-21 18:39:00+00:00,243.0581,18.27,12.25,47.84626,-54.09684
2023-08-21 18:49:00+00:00,237.1914,18.28,12.25,47.84626,-54.09684
2023-08-21 18:59:00+00:00,228.6131,18.3,12.25,47.84626,-54.09684
2023-08-21 19:09:00+00:00,221.1131,18.3,12.25,47.84626,-54.09684
2023-08-21 19:19:00+00:00,216.1731,18.3,12.25,47.84626,-54.09684
2023-08-21 19:29:00+00:00,210.6781,18.3,12.25,47.84626,-54.09684
2023-08-21 19:39:00+00:00,206.7248,18.3,12.25,47.84626,-54.09684
2023-08-21 19:49:00+00:00,203.7214,18.3,12.25,47.84626,-54.09684
2023-08-21 19:59:00+00:00,197.6881,18.3,12.25,47.84626,-54.09684
2023-08-21 20:09:00+00:00,193.2998,18.3,12.25,47.84626,-54.09684
2023-08-21 20:19:00+00:00,195.2197,18.3,12.25,47.84626,-54.09684
2023-08-21 20:29:00+00:00,196.7581,18.3,12.25,47.84626,-54.09684
2023-08-21 20:39:00+00:00,194.2265,18.32,12.25,47.84626,-54.09684
2023-08-21 20:49:00+00:00,196.3031,18.36,12.25,47.84626,-54.09684
2023-08-21 20:59:00+00:00,204.4832,18.36,12.25,47.84626,-54.09684
2023-08-21 21:09:00+00:00,208.3464,18.39,12.25,47.84626,-54.09684
2023-08-21 21:19:00+00:00,208.4181,18.4,12.25,47.84626,-54.09684
2023-08-21 21:29:00+00:00,211.2498,18.4,12.25,47.84626,-54.09684
2023-08-21 21:39:00+00:00,215.7964,18.4,12.25,47.84626,-54.09684
2023-08-21 21:49:00+00:00,217.0914,18.39,12.25,47.84626,-54.09684
2023-08-21 21:59:00+00:00,217.8364,18.4,12.25,47.84626,-54.09684
2023-08-21 22:09:00+00:00,222.7364,18.4,12.25,47.84626,-54.09684
2023-08-21 22:19:00+00:00,230.9447,18.4,12.17,47.84626,-54.09684
2023-08-21 22:29:00+00:00,236.1847,18.4,12.17,47.84626,-54.09684
2023-08-21 22:39:00+00:00,238.2481,18.4,12.17,47.84626,-54.09684
2023-08-21 22:49:00+00:00,239.5948,18.4,12.17,47.84626,-54.09684
2023-08-21 22:59:00+00:00,244.0964,18.4,12.17,47.84626,-54.09684
2023-08-21 23:09:00+00:00,253.8047,18.4,12.17,47.84626,-54.09684
2023-08-21 23:19:00+00:00,258.3898,18.4,12.17,47.84626,-54.09684
2023-08-21 23:29:00+00:00,256.7681,18.4,12.17,47.84626,-54.09684
2023-08-21 23:39:00+00:00,258.8514,18.4,12.17,47.84626,-54.09684
2023-08-21 23:49:00+00:00,265.3314,18.4,12.17,47.84626,-54.09684
2023-08-21 23:59:00+00:00,266.7381,18.4,12.17,47.84626,-54.09684
